Location: Gunnison Valley Observatory
(38.5087°N, 106.9386°W)
Time: 10:36:18
(UTC-06:00)

Amateur Radio Satellites - All Passes

Search period start: 28 May 2017 10:06
Search period end: 29 May 2017 10:06
Location: Gunnison Valley Observatory, 38.5087°N, 106.9386°W

Satellite Date Start Highest point End Downlink Frequencies (MHz)
Time Altitude Azimuth
UWE-3 28 May 10:09:07 10:13:12 32° 289° (WNW) 10:17:20 435.000/436.395/437.385
HO-68 28 May 10:18:05 10:23:34 24° 300° (WNW) 10:29:02 435.675
EO-88 28 May 10:21:04 10:24:06 24° 96° (E) 10:27:05 145.990 - 145.960
RS-15 28 May 10:27:30 10:39:14 48° 46° (NE) 10:50:22 29.354- 29.394
Oscar 11 28 May 10:33:48 10:37:52 39° 288° (WNW) 10:41:54 .
TIGRISAT 28 May 10:43:27 10:47:39 60° 259° (W) 10:51:57 435.000
DELFI C3 28 May 10:45:51 10:49:47 76° 101° (E) 10:53:40 145.870
NO-84 28 May 10:46:46 10:48:40 13° 339° (NNW) 10:50:32 435.350 FM
AAUSAT CUBESAT 2 28 May 10:47:19 10:48:21 11° 296° (WNW) 10:49:22 437.432
PRISM 28 May 10:47:38 10:51:24 34° 262° (W) 10:55:10 437.425
QB50P2 28 May 10:47:40 10:47:50 10° 63° (ENE) 10:48:00 145.880/145.840
AO-73 28 May 11:03:47 11:06:45 17° 294° (WNW) 11:09:42 145.935
UNISAT 6 28 May 11:16:46 11:20:11 23° 265° (W) 11:23:40 437.425
FO-29 28 May 11:18:10 11:22:41 30° 264° (W) 11:27:19 435.910
AIST 2D 28 May 11:20:25 11:23:44 40° 74° (ENE) 11:27:05 435.315
ZACube-1 28 May 11:20:32 11:21:44 11° 297° (WNW) 11:22:56 437.345
EO-79 28 May 11:20:41 11:23:57 22° 69° (ENE) 11:27:14 145.935-145.965
EO-88 28 May 11:54:55 11:57:37 19° 291° (WNW) 12:00:17 145.990 - 145.960
YUBILEINY 28 May 12:01:09 12:09:30 44° 75° (ENE) 12:17:47 435.215
NANOSAT C BR1 28 May 12:03:35 12:07:43 64° 75° (ENE) 12:11:52 145.865
POLYITAN 1 28 May 12:10:01 12:14:12 86° 74° (ENE) 12:18:26 437.675
DUCHIFAT 1 28 May 12:13:09 12:17:17 75° 77° (ENE) 12:21:28 145.980
QB50P2 28 May 12:18:51 12:23:01 68° 259° (W) 12:27:13 145.880/145.840
BUGSAT 1 28 May 12:23:56 12:27:19 27° 70° (ENE) 12:30:43 437.445
LO-87 28 May 12:30:37 12:34:06 53° 285° (WNW) 12:37:35 145.935 - 145.965
RS-15 28 May 12:40:20 12:51:53 54° 250° (WSW) 13:02:53 29.354- 29.394
ESTCUBE 1 28 May 12:42:57 12:47:29 90° 150° (SSE) 12:51:57 437.505/2401.250
EO-79 28 May 12:55:59 12:59:34 27° 264° (W) 13:03:09 145.935-145.965
AIST 2D 28 May 12:56:55 12:57:08 10° 269° (W) 12:57:21 435.315
SPROUT 28 May 13:08:26 13:12:30 42° 99° (E) 13:16:34 437.525
BEESAT 3 28 May 13:13:25 13:16:03 17° 47° (NE) 13:18:38 437.485
Gurwin Techsat 1B 28 May 13:15:02 13:19:17 25° 66° (ENE) 13:23:34 435.225
Oscar 19 28 May 13:19:57 13:24:53 45° 71° (ENE) 13:29:49 437.125/150
AO-85 28 May 13:20:17 13:24:17 54° 57° (ENE) 13:28:29 145.980
50 SAT 28 May 13:29:14 13:32:19 32° 98° (E) 13:35:23 437.505
VELOX 1 28 May 13:29:43 13:34:07 72° 102° (ESE) 13:38:29 145.980
UKube-1 28 May 13:47:02 13:50:33 24° 96° (E) 13:54:04 .
YUBILEINY 28 May 13:58:11 14:06:07 39° 274° (W) 14:14:02 435.215
DX 1 28 May 13:58:31 14:02:44 49° 100° (E) 14:06:56 434.975-435.025
BUGSAT 1 28 May 13:59:41 14:02:39 20° 265° (W) 14:05:39 437.445
O/OREOS (USA 219) 28 May 13:59:55 14:04:27 79° 70° (ENE) 14:08:54 437.305
NO-84 28 May 14:05:07 14:07:08 14° 22° (NNE) 14:09:06 435.350 FM
AO-7 28 May 14:06:38 14:12:38 23° 54° (NE) 14:18:39 .
ITAMSAT 1 28 May 14:28:09 14:31:23 17° 63° (ENE) 14:34:36 435.822/435.867
BEESAT 2 28 May 14:34:40 14:38:31 39° 54° (NE) 14:42:18 435.950
SPROUT 28 May 14:45:26 14:48:02 16° 294° (WNW) 14:50:39 437.525
BEESAT 3 28 May 14:50:01 14:53:52 46° 244° (WSW) 14:57:39 437.485
Gurwin Techsat 1B 28 May 14:54:04 14:59:00 39° 262° (W) 15:03:57 435.225
Oscar 19 28 May 15:00:36 15:04:22 20° 266° (W) 15:08:10 437.125/150
AO-85 28 May 15:02:29 15:04:16 12° 250° (WSW) 15:06:05 145.980
50 SAT 28 May 15:03:26 15:04:52 12° 293° (WNW) 15:06:17 437.505
VELOX 1 28 May 15:09:16 15:09:56 10° 298° (WNW) 15:10:35 145.980
ITUPSAT 1 28 May 15:13:31 15:16:55 19° 94° (E) 15:20:17 437.325
UKube-1 28 May 15:22:54 15:26:30 26° 291° (WNW) 15:30:05 .
DX 1 28 May 15:36:12 15:38:29 14° 296° (WNW) 15:40:46 434.975-435.025
NO-84 28 May 15:41:40 15:45:26 67° 42° (NE) 15:48:50 435.350 FM
BEESAT 28 May 15:44:41 15:49:13 41° 99° (E) 15:53:43 436.000
AO-7 28 May 15:56:11 16:04:29 81° 253° (WSW) 16:12:50 .
ITAMSAT 1 28 May 16:05:15 16:10:19 58° 258° (WSW) 16:15:27 435.822/435.867
BEESAT 2 28 May 16:13:21 16:15:56 17° 250° (WSW) 16:18:31 435.950
MOZHAYETS 4 28 May 16:44:35 16:49:14 79° 284° (WNW) 16:53:52
ITUPSAT 1 28 May 16:50:21 16:54:53 42° 289° (WNW) 16:59:24 437.325
DOVE 4 28 May 17:21:07 17:24:52 26° 70° (ENE) 17:28:28 437.250
KKS-1 28 May 17:21:39 17:25:43 34° 98° (E) 17:29:44 437.445
NO-84 28 May 17:22:11 17:22:20 10° 240° (WSW) 17:22:28 435.350 FM
BEESAT 28 May 17:23:11 17:26:40 20° 294° (WNW) 17:30:09 436.000
LilacSat-2 28 May 17:35:29 17:38:06 18° 68° (ENE) 17:40:45 437.200
CUBESAT XI-V 28 May 17:36:35 17:41:13 64° 101° (E) 17:45:46 437.345
STARS 28 May 17:46:21 17:50:04 26° 96° (E) 17:53:46 437.465
AO-7 28 May 17:54:29 17:58:20 14° 270° (W) 18:02:14 .
XW-2D 28 May 18:05:52 18:09:27 40° 73° (ENE) 18:13:04 145.860 - 145.880
XW-2B 28 May 18:13:46 18:17:27 49° 74° (ENE) 18:21:09 145.730 - 145.750
NUDT-PHONESAT 28 May 18:16:39 18:20:08 39° 73° (ENE) 18:23:39 437.300
CUTE-I 28 May 18:16:41 18:21:50 54° 72° (ENE) 18:27:00 437.470
XW-2F 28 May 18:24:34 18:28:20 66° 76° (ENE) 18:32:08 145.980 - 146.000
XW-2C 28 May 18:27:25 18:31:12 77° 77° (ENE) 18:35:03 145.795 - 145.815
KAITUO 1B 28 May 18:28:14 18:31:56 59° 75° (ENE) 18:35:40 145.475/437.950
PCSat 28 May 18:34:44 18:39:43 39° 110° (ESE) 18:44:44 145.827
Tancredo 1 28 May 18:49:30 18:51:51 20° 132° (SE) 18:54:13 437.200
HO-68 28 May 18:56:18 19:02:54 42° 66° (ENE) 19:09:33 435.675
DOVE 4 28 May 18:58:37 19:02:29 26° 264° (W) 19:06:11 437.250
KKS-1 28 May 18:58:44 19:02:01 21° 293° (WNW) 19:05:18 437.445
SEEDS 28 May 19:06:20 19:09:15 18° 68° (ENE) 19:12:12 437.485
LilacSat-2 28 May 19:08:47 19:12:09 29° 263° (W) 19:15:34 437.200
CUBESAT XI-V 28 May 19:16:02 19:18:00 13° 297° (WNW) 19:19:57 437.345
STARS 28 May 19:22:41 19:26:18 25° 291° (WNW) 19:29:55 437.465
CUBEBUG 2 28 May 19:23:42 19:26:49 21° 68° (ENE) 19:30:00 437.445
UWE-3 28 May 19:29:51 19:32:13 15° 65° (ENE) 19:34:37 435.000/436.395/437.385
XW-2D 28 May 19:42:12 19:43:49 12° 268° (W) 19:45:26 145.860 - 145.880
XW-2A 28 May 19:42:58 19:46:16 66° 76° (ENE) 19:49:38 145.665 - 145.685
ISS 28 May 19:43:02 19:46:13 49° 137° (SE) 19:49:26 437.550
XW-2B 28 May 19:51:41 19:51:54 10° 269° (W) 19:52:07 145.730 - 145.750
NUDT-PHONESAT 28 May 19:52:50 19:54:13 12° 268° (W) 19:55:36 437.300
Oscar 11 28 May 19:53:47 19:55:08 11° 64° (ENE) 19:56:29 .
CUTE 1.7 + AOD 2 28 May 19:55:43 19:59:59 76° 257° (WSW) 20:04:18 437.475
STRAND 1 28 May 19:55:56 20:00:32 32° 97° (E) 20:05:06 437.568
AAUSAT CUBESAT 2 28 May 19:57:53 20:01:35 32° 71° (ENE) 20:05:19 437.432
CUTE-I 28 May 19:58:43 20:02:10 17° 267° (W) 20:05:38 437.470
PCSat 28 May 20:18:30 20:23:10 29° 308° (NW) 20:27:53 145.827
AO-73 28 May 20:20:47 20:24:23 27° 70° (ENE) 20:28:02 145.935
Tancredo 1 28 May 20:24:36 20:27:27 34° 327° (NNW) 20:30:18 437.200
ZACube-1 28 May 20:35:45 20:39:46 45° 73° (ENE) 20:43:54 437.345
SEEDS 28 May 20:40:46 20:44:40 35° 263° (W) 20:48:35 437.485
HO-68 28 May 20:44:09 20:50:37 36° 263° (W) 20:57:09 435.675
CUBEBUG 2 28 May 20:59:37 21:03:16 29° 264° (W) 21:06:59 437.445
UWE-3 28 May 21:04:15 21:08:15 44° 261° (W) 21:12:22 435.000/436.395/437.385
ISS 28 May 21:20:16 21:22:53 21° 333° (NNW) 21:25:31 437.550
Oscar 11 28 May 21:26:23 21:30:41 64° 259° (W) 21:35:01 .
DELFI C3 28 May 21:29:39 21:33:16 33° 72° (ENE) 21:36:52 145.870
AAUSAT CUBESAT 2 28 May 21:34:06 21:37:04 19° 266° (W) 21:40:05 437.432
STRAND 1 28 May 21:35:13 21:39:34 29° 293° (WNW) 21:43:56 437.568
SO-50 28 May 21:55:28 21:59:56 52° 117° (ESE) 22:04:22 436.795
AO-73 28 May 21:57:13 22:00:34 23° 266° (W) 22:04:00 145.935
ZACube-1 28 May 22:14:07 22:16:17 14° 269° (W) 22:18:30 437.345
M-CUBED/EXP-1 PRIME 28 May 22:18:56 22:22:04 43° 291° (WNW) 22:25:10 437.505
FO-29 28 May 22:25:53 22:32:01 36° 97° (E) 22:38:43 435.910
EO-88 28 May 22:30:01 22:33:36 55° 259° (W) 22:37:14 145.990 - 145.960
PRISM 28 May 22:30:05 22:33:45 32° 98° (E) 22:37:23 437.425
TIGRISAT 28 May 22:36:08 22:40:16 31° 97° (E) 22:44:26 435.000
LO-87 28 May 23:05:01 23:08:22 41° 74° (ENE) 23:11:43 145.935 - 145.965
DELFI C3 28 May 23:05:35 23:08:06 16° 267° (W) 23:10:39 145.870
UNISAT 6 28 May 23:08:15 23:12:55 78° 102° (ESE) 23:17:36 437.425
SO-50 28 May 23:37:25 23:40:40 19° 314° (NW) 23:43:55 436.795
ESTCUBE 1 28 May 23:40:33 23:45:03 68° 75° (ENE) 23:49:34 437.505/2401.250
NANOSAT C BR1 28 May 23:51:24 23:52:50 11° 91° (E) 23:54:15 145.865
POLYITAN 1 28 May 23:57:24 23:59:59 16° 93° (E) 00:02:34 437.675
DUCHIFAT 1 29 May 00:00:08 00:02:09 13° 92° (E) 00:04:10 145.980
SPROUT 29 May 00:00:31 00:04:04 26° 70° (ENE) 00:07:37 437.525
50 SAT 29 May 00:02:24 00:03:07 11° 66° (ENE) 00:03:51 437.505
QB50P2 29 May 00:05:39 00:08:55 21° 95° (E) 00:12:11 145.880/145.840
PRISM 29 May 00:05:59 00:08:47 18° 293° (WNW) 00:11:34 437.425
FO-29 29 May 00:10:54 00:16:59 41° 291° (WNW) 00:23:43 435.910
TIGRISAT 29 May 00:13:03 00:16:47 24° 291° (WNW) 00:20:32 435.000
AIST 2D 29 May 00:19:39 00:23:12 63° 101° (E) 00:26:43 435.315
VELOX 1 29 May 00:25:13 00:29:29 52° 73° (ENE) 00:33:46 145.980
ISS 29 May 00:37:05 00:38:09 11° 14° (NNE) 00:39:12 437.550
UKube-1 29 May 00:40:36 00:43:32 18° 66° (ENE) 00:46:28 .
EO-79 29 May 00:41:09 00:45:18 50° 100° (E) 00:49:26 145.935-145.965
UNISAT 6 29 May 00:47:50 00:48:58 11° 297° (WNW) 00:50:05 437.425
RS-15 29 May 00:49:57 00:59:51 31° 103° (ESE) 01:09:56 29.354- 29.394
DX 1 29 May 00:52:32 00:56:29 36° 71° (ENE) 01:00:27 434.975-435.025
YUBILEINY 29 May 00:59:59 01:08:19 52° 89° (E) 01:16:42 435.215
Tancredo 1 29 May 01:15:18 01:17:39 20° 27° (NNE) 01:19:58 437.200
ESTCUBE 1 29 May 01:21:42 01:22:16 10° 270° (W) 01:22:50 437.505/2401.250
NANOSAT C BR1 29 May 01:24:41 01:28:50 54° 286° (WNW) 01:32:59 145.865
POLYITAN 1 29 May 01:31:54 01:35:55 40° 288° (WNW) 01:39:56 437.675
50 SAT 29 May 01:32:19 01:35:35 40° 261° (W) 01:38:51 437.505
DUCHIFAT 1 29 May 01:33:58 01:38:03 47° 287° (WNW) 01:42:08 145.980
Oscar 19 29 May 01:34:01 01:37:24 17° 93° (E) 01:40:45 437.125/150
SPROUT 29 May 01:36:31 01:39:54 23° 265° (W) 01:43:19 437.525
QB50P2 29 May 01:40:58 01:44:42 30° 290° (WNW) 01:48:25 145.880/145.840
BUGSAT 1 29 May 01:41:13 01:45:19 59° 101° (E) 01:49:28 437.445
VELOX 1 29 May 02:04:11 02:06:13 13° 268° (W) 02:08:14 145.980
ISS 29 May 02:12:16 02:15:23 38° 33° (NNE) 02:18:28 437.550
UKube-1 29 May 02:15:16 02:19:16 37° 262° (W) 02:23:16 .
EO-79 29 May 02:18:28 02:20:37 14° 295° (WNW) 02:22:45 145.935-145.965
ITUPSAT 1 29 May 02:19:05 02:22:29 20° 65° (ENE) 02:25:53 437.325
DX 1 29 May 02:29:44 02:32:45 18° 266° (W) 02:35:47 434.975-435.025
O/OREOS (USA 219) 29 May 02:35:15 02:36:14 11° 97° (E) 02:37:12 437.305
BEESAT 29 May 02:49:31 02:53:57 40° 71° (ENE) 02:58:24 436.000
Tancredo 1 29 May 02:50:35 02:53:33 46° 223° (SW) 02:56:29 437.200
YUBILEINY 29 May 02:57:49 03:05:23 32° 289° (WNW) 03:13:03 435.215
RS-15 29 May 02:59:09 03:11:14 74° 304° (WNW) 03:23:41 29.354- 29.394
Gurwin Techsat 1B 29 May 03:11:11 03:16:33 88° 282° (WNW) 03:21:52 435.225
Oscar 19 29 May 03:12:00 03:16:58 51° 288° (WNW) 03:21:56 437.125/150
BUGSAT 1 29 May 03:18:50 03:20:10 11° 296° (WNW) 03:21:30 437.445
PCSat 29 May 03:24:04 03:28:32 25° 51° (NE) 03:32:58 145.827
AO-85 29 May 03:34:07 03:37:31 24° 113° (ESE) 03:40:47 145.980
MOZHAYETS 4 29 May 03:44:32 03:49:08 82° 76° (ENE) 03:53:47
ISS 29 May 03:49:12 03:51:41 20° 229° (SW) 03:54:11 437.550
ITUPSAT 1 29 May 03:55:28 03:59:58 42° 261° (W) 04:04:31 437.325
AO-7 29 May 03:59:44 04:07:23 38° 99° (E) 04:14:58 .
O/OREOS (USA 219) 29 May 04:10:26 04:14:59 66° 292° (WNW) 04:19:35 437.305
JUGNU 29 May 04:17:06 04:19:15 12° 180° (S) 04:21:24 437.505
KKS-1 29 May 04:18:26 04:22:08 27° 69° (ENE) 04:25:51 437.445
ITAMSAT 1 29 May 04:19:22 04:24:30 55° 101° (E) 04:29:37 435.822/435.867
BEESAT 29 May 04:28:27 04:31:52 19° 266° (W) 04:35:17 436.000
CUBESAT XI-V 29 May 04:38:01 04:42:35 53° 74° (ENE) 04:47:11 437.345
BEESAT 3 29 May 04:38:04 04:41:42 37° 115° (ESE) 04:45:25 437.485
STARS 29 May 04:41:56 04:45:09 20° 67° (ENE) 04:48:22 437.465
Gurwin Techsat 1B 29 May 04:54:13 04:55:39 11° 301° (WNW) 04:57:06 435.225
PCSat 29 May 05:06:57 05:12:08 46° 248° (WSW) 05:17:16 145.827
AO-85 29 May 05:14:10 05:17:46 28° 308° (NW) 05:21:15 145.980
RS-15 29 May 05:16:30 05:26:23 27° 331° (NNW) 05:36:22 29.354- 29.394
AO-7 29 May 05:52:20 06:00:11 47° 296° (WNW) 06:08:03 .
KKS-1 29 May 05:54:57 05:58:36 25° 264° (W) 06:02:17 437.445
ITAMSAT 1 29 May 06:00:04 06:03:30 18° 297° (WNW) 06:06:56 435.822/435.867
BEESAT 2 29 May 06:01:33 06:05:29 69° 301° (WNW) 06:09:31 435.950
BEESAT 3 29 May 06:16:31 06:19:25 19° 312° (NW) 06:22:22 437.485
STARS 29 May 06:17:20 06:21:15 33° 262° (W) 06:25:12 437.465
CUBESAT XI-V 29 May 06:17:42 06:20:14 14° 269° (W) 06:22:47 437.345
SO-50 29 May 06:28:10 06:32:13 32° 51° (NE) 06:36:16 436.795
CUTE-I 29 May 06:35:41 06:39:57 24° 95° (E) 06:44:12 437.470
LilacSat-2 29 May 06:43:04 06:46:32 30° 97° (E) 06:49:57 437.200
SRMSAT 29 May 06:50:19 06:52:34 12° 180° (S) 06:54:50 437.500
NO-84 29 May 06:57:24 07:00:38 20° 124° (SE) 07:03:52 435.350 FM
DOVE 4 29 May 06:57:26 07:01:39 87° 103° (ESE) 07:06:01 437.250
STRAND 1 29 May 07:10:20 07:15:03 39° 70° (ENE) 07:19:47 437.568
XW-2D 29 May 07:13:30 07:17:22 76° 101° (ESE) 07:21:11 145.860 - 145.880
XW-2B 29 May 07:21:32 07:25:24 88° 283° (WNW) 07:29:13 145.730 - 145.750
NUDT-PHONESAT 29 May 07:21:52 07:25:38 71° 101° (E) 07:29:22 437.300
M-CUBED/EXP-1 PRIME 29 May 07:30:48 07:32:39 13° 62° (ENE) 07:34:26 437.505
XW-2F 29 May 07:32:02 07:35:50 66° 284° (WNW) 07:39:37 145.980 - 146.000
KAITUO 1B 29 May 07:34:34 07:38:22 76° 283° (WNW) 07:42:08 145.475/437.950
XW-2C 29 May 07:35:25 07:39:13 56° 284° (WNW) 07:42:58 145.795 - 145.815
RS-15 29 May 07:37:02 07:45:08 19° 7° (N) 07:53:06 29.354- 29.394
CUTE 1.7 + AOD 2 29 May 07:42:46 07:45:57 20° 94° (E) 07:49:05 437.475
SO-50 29 May 08:08:46 08:12:33 26° 247° (WSW) 08:16:19 436.795
HO-68 29 May 08:12:31 08:19:29 49° 100° (E) 08:26:23 435.675
CUTE-I 29 May 08:15:08 08:20:05 40° 290° (WNW) 08:25:02 437.470
LilacSat-2 29 May 08:17:58 08:20:33 17° 292° (WNW) 08:23:07 437.200
SEEDS 29 May 08:25:38 08:29:36 39° 98° (E) 08:33:31 437.485
ZACube-1 29 May 08:27:50 08:28:53 11° 90° (E) 08:29:55 437.345
NO-84 29 May 08:33:38 08:37:58 55° 319° (NW) 08:42:12 435.350 FM
XW-2A 29 May 08:38:34 08:42:02 89° 101° (E) 08:45:28 145.665 - 145.685
STRAND 1 29 May 08:50:24 08:54:19 22° 266° (W) 08:58:17 437.568
CUBEBUG 2 29 May 08:50:30 08:55:06 61° 100° (E) 08:59:47 437.445
UWE-3 29 May 08:54:39 08:59:01 40° 98° (E) 09:03:24 435.000/436.395/437.385
M-CUBED/EXP-1 PRIME 29 May 09:02:39 09:06:46 51° 254° (WSW) 09:10:35 437.505
Oscar 11 29 May 09:15:25 09:19:02 25° 95° (E) 09:22:37 .
AAUSAT CUBESAT 2 29 May 09:16:04 09:20:12 73° 101° (E) 09:24:18 437.432
CUTE 1.7 + AOD 2 29 May 09:18:03 09:21:47 30° 289° (WNW) 09:25:29 437.475
PRISM 29 May 09:18:21 09:21:22 20° 68° (ENE) 09:24:24 437.425
TIGRISAT 29 May 09:33:59 09:37:16 22° 68° (ENE) 09:40:36 435.000
AO-73 29 May 09:45:06 09:49:40 74° 101° (E) 09:54:14 145.935
EO-88 29 May 10:01:37 10:03:26 13° 93° (E) 10:05:14 145.990 - 145.960
